Location: Rowland
(34.5359°N, 79.2929°W)
Time: 19:20:35
(UTC+00:00)

Transit 4A - Pass Details

Date: 10 October 2022
Orbit: 871 x 972 km, 66.8° (Epoch: 01 December)

Event Time Altitude Azimuth Distance (km) Brightness Sun altitude
Rises 02:43:17 0° 246° (WSW) 3,600 11.3 -47.2°
Enters shadow 02:45:14 - 255° (WSW) 3,008 10.9 -47.5°
Reaches altitude 10° 02:46:34 10° 263° (W) 2,641 - -47.7°
Maximum altitude 02:50:59 20° 309° (NW) 1,982 - -48.5°
Drops below altitude 10° 02:55:20 10° 356° (N) 2,597 - -49.2°
Sets 02:58:33 0° 13° (NNE) 3,523 - -49.8°
